Key Field Meridian US
ICAO: KMEI
IATA: MEI
Category: Medium
Scheduled Services: Yes

Elevation: 297 ft
TransAlt. 18000 ft.

Airport Communications:
MERIDIAN APP/DEP:120.5
ATIS:126.475
CTAF:119.8
GCA:125.125
GND:121.9
ANG OPS COMD POST:29.23
GREENWOOD RDO:122.2
TWR:119.8
UNICOM:122.95

KMEI Zoom In..

Runways:

(A) RW 01 length 10003 ft width 150 ft
ILS 110.10 / hdg 11

(B) RW 04 length 4599 ft width 150 ft
---- / hdg 46

(C) RW 19 length 10003 ft width 150 ft
ILS 111.35 / hdg 191

(D) RW 22 length 4599 ft width 150 ft
---- / hdg 226

Location; KMEI
Day. 20 / Time. 09.58 Zulu
* Altimeter: 30.28
* Temperature: 07° c. 44.6°f.
* Wind from: 010° Speed 07 kn.
Dewpoint: 02° c.
Visibility: 10 Statute Miles.
Clouds: Clear (automated report).

KMEI 200958Z AUTO 01007KT 10SM CLR 07/02 A3028 RMK AO2 SLP251 T00670017


Wind From 010°
Speed 07 kn.

  YouTube Music Video
 
jpsmedia.com for Web Design  worldairports.se 2018   terms of use